FW6802 Weather Reports


Display with metric or nautical units.
time (UTC)temp
F
wind
direction
speed
MPH
gust
MPH
rain 1hr
in
rain 24hr
in
rain mn
in
humidity
%
barometer
mb
20260510070945 62 347 4.0 12.0 0.00 0.00 0.00 68 1008.7
20260510070445 62 25 3.0 12.0 0.00 0.00 0.00 69 1008.3
20260510065945 62 7 4.0 12.0 0.00 0.00 0.00 70 1008.5
20260510065444 63 15 2.0 12.0 0.00 0.00 0.00 72 1008.7
20260510064944 63 18 3.0 12.0 0.00 0.00 0.00 75 1008.7
20260510064444 63 27 1.0 12.0 0.00 0.00 0.00 77 1008.4
20260510063944 63 306 5.0 12.0 0.00 0.00 0.00 78 1008.7
20260510063444 63 237 0.0 12.0 0.00 0.00 0.00 79 1008.5
20260510062944 63 236 0.0 12.0 0.00 0.00 0.00 79 1008.4
20260510062443 63 236 0.0 12.0 0.00 0.00 0.00 79 1008.4
20260510061943 64 236 0.0 12.0 0.00 0.00 0.00 79 1008.1
20260510061443 64 236 0.0 12.0 0.00 0.00 0.00 78 1008.2
20260510060943 64 236 0.0 12.0 0.00 0.00 0.00 78 1008.2
20260510060442 64 236 0.0 12.0 0.00 0.00 0.00 78 1008.1
20260510055942 64 236 0.0 12.0 0.00 0.00 0.00 78 1008.4
20260510055442 64 236 0.0 12.0 0.00 0.00 0.00 77 1008.2
20260510054942 65 236 0.0 12.0 0.00 0.00 0.00 77 1008.7
20260510054442 65 236 0.0 12.0 0.00 0.00 0.00 77 1008.6
20260510053942 65 236 0.0 12.0 0.00 0.00 0.00 77 1008.6
20260510051856 66 221 2.0 12.0 0.00 0.00 0.00 76 1008.1
20260510051355 66 226 2.0 12.0 0.00 0.00 0.00 75 1008.1
20260510050855 66 220 2.0 12.0 0.00 0.00 0.00 74 1008.2
20260510050355 66 229 2.0 12.0 0.00 0.00 0.00 73 1008.2
20260510045854 66 225 2.0 12.0 0.00 0.00 0.00 73 1008.3
20260510045354 66 203 2.0 12.0 0.00 0.00 0.00 73 1008.1
20260510044853 66 221 2.0 12.0 0.00 0.00 0.00 73 1008.2
20260510044353 66 242 3.0 12.0 0.00 0.00 0.00 73 1008.2
20260510043337 66 239 2.0 12.0 0.00 0.00 0.00 74 1008.2
20260510042321 66 280 2.0 12.0 0.00 0.00 0.00 74 1008.4
20260510041304 65 215 1.0 12.0 0.00 0.00 0.00 73 1007.6
20260510040804 65 206 1.0 12.0 0.00 0.00 0.00 73 1007.9
20260510040303 65 206 0.0 12.0 0.00 0.00 0.00 74 1007.8
20260510035804 65 206 1.0 12.0 0.00 0.00 0.00 74 1007.5
20260510035306 65 205 1.0 12.0 0.00 0.00 0.00 74 1007.5
20260510034247 65 206 3.0 12.0 0.00 0.00 0.00 74 1007.7
20260510033233 65 186 1.0 12.0 0.00 0.00 0.35 75 1007.4
20260510032732 65 205 2.0 12.0 0.00 0.00 0.35 75 1007.5
20260510032232 65 199 2.0 12.0 0.00 0.00 0.35 75 1007.9
20260510031732 65 210 1.0 12.0 0.00 0.00 0.35 75 1007.7
20260510030716 65 206 1.0 12.0 0.00 0.00 0.35 74 1007.6
20260510030215 65 200 3.0 12.0 0.00 0.00 0.35 74 1007.7
20260510025714 65 193 2.0 12.0 0.00 0.00 0.35 74 1007.6
20260510025214 65 195 2.0 12.0 0.00 0.00 0.35 73 1007.6
20260510024715 65 203 1.0 12.0 0.00 0.00 0.35 73 1007.3
20260510023143 65 186 2.0 12.0 0.00 0.00 0.35 72 1007.3
20260510022642 66 199 2.0 12.0 0.00 0.00 0.35 72 1007.4
20260510022142 66 205 2.0 12.0 0.00 0.00 0.35 71 1007.3
20260510021641 66 199 2.0 12.0 0.00 0.00 0.35 71 1007.3
20260510021140 66 208 1.0 12.0 0.00 0.00 0.35 70 1007.2
20260510020641 66 191 3.0 12.0 0.00 0.00 0.35 70 1007.1
20260510020140 66 188 2.0 12.0 0.00 0.00 0.35 69 1007.0
20260510015640 67 191 2.0 12.0 0.00 0.00 0.35 69 1007.0
20260510015138 67 189 2.0 12.0 0.00 0.00 0.35 69 1007.0
20260510014639 67 194 1.0 12.0 0.00 0.00 0.35 68 1006.9
20260510014137 67 202 2.0 12.0 0.00 0.00 0.35 67 1006.6
20260510013121 68 203 2.0 12.0 0.00 0.00 0.35 66 1006.3
20260510012621 68 201 1.0 12.0 0.00 0.00 0.35 66 1006.5
20260510012121 68 206 3.0 12.0 0.00 0.00 0.35 65 1006.3
20260510011621 69 206 2.0 12.0 0.00 0.00 0.35 65 1006.4
20260510010606 69 198 2.0 12.0 0.00 0.00 0.35 64 1006.2
20260510010106 69 213 2.0 12.0 0.00 0.00 0.35 63 1006.2
20260510005607 70 218 3.0 12.0 0.00 0.00 0.35 62 1006.3
20260510005106 70 207 3.0 12.0 0.00 0.00 0.35 62 1005.9
20260510004606 70 224 3.0 12.0 0.00 0.00 0.35 61 1006.0
20260510004107 70 204 3.0 12.0 0.00 0.00 0.35 60 1005.9
20260510003607 70 213 3.0 12.0 0.00 0.00 0.35 60 1005.7
20260510003107 71 229 2.0 12.0 0.00 0.00 0.35 59 1005.8
20260510002606 71 233 4.0 12.0 0.00 0.00 0.35 58 1005.5
20260510002105 71 225 3.0 12.0 0.00 0.00 0.35 57 1005.8
20260510001605 72 226 3.0 12.0 0.00 0.00 0.35 56 1005.6
20260510000550 72 224 5.0 12.0 0.00 0.00 0.35 55 1005.4
20260510000049 73 225 6.0 12.0 0.00 0.00 0.35 54 1005.3
20260509235549 73 239 6.0 12.0 0.00 0.00 0.35 54 998.0
20260509234534 73 226 6.0 12.0 0.00 0.00 0.35 54 993.7
20260509234034 74 240 5.0 12.0 0.00 0.00 0.35 53 991.8
20260509233533 74 233 5.0 12.0 0.00 0.00 0.35 54 990.5
20260509233033 74 220 5.0 12.0 0.00 0.00 0.35 53 989.5
20260509232018 74 231 6.0 13.0 0.00 0.00 0.35 53 991.6
20260509231517 74 230 7.0 13.0 0.00 0.00 0.35 52 992.5
20260509231018 74 237 5.0 19.0 0.00 0.00 0.35 52 995.5
20260509230517 74 240 6.0 19.0 0.00 0.00 0.35 52 998.2
20260509230017 75 241 5.0 19.0 0.00 0.00 0.35 51 1002.2
20260509225002 75 241 6.0 15.0 0.00 0.00 0.35 49 1001.5
20260509224502 75 237 6.0 18.0 0.00 0.00 0.35 49 1003.2
20260509224001 75 241 8.0 18.0 0.00 0.00 0.35 47 1003.0
20260509223501 76 243 7.0 16.0 0.00 0.00 0.35 47 1003.3
20260509223002 76 247 9.0 16.0 0.00 0.00 0.35 46 1002.8
20260509222502 76 245 6.0 18.0 0.00 0.00 0.35 46 1003.4
20260509222002 76 250 7.0 18.0 0.00 0.00 0.35 46 1004.1
20260509221502 76 233 6.0 14.0 0.00 0.00 0.35 47 1004.3
20260509221002 76 242 8.0 15.0 0.00 0.00 0.35 46 1004.7
20260509220502 76 247 6.0 16.0 0.00 0.00 0.35 45 1006.2
20260509220002 76 233 7.0 18.0 0.00 0.00 0.35 46 1005.8
20260509215501 76 235 8.0 18.0 0.00 0.00 0.35 44 1006.6
20260509214445 76 224 9.0 19.0 0.00 0.00 0.35 44 1005.3
20260509213945 77 233 8.0 19.0 0.00 0.00 0.35 44 1005.1
20260509213444 77 250 8.0 16.0 0.00 0.00 0.35 44 1001.3
20260509212944 76 242 9.0 16.0 0.00 0.00 0.35 44 1001.7
20260509211929 77 238 6.0 13.0 0.00 0.00 0.35 48 1003.6
20260509211428 77 232 6.0 14.0 0.00 0.00 0.35 46 1003.8
20260509210412 76 239 7.0 15.0 0.00 0.00 0.35 46 1004.4
20260509205912 76 227 6.0 16.0 0.00 0.00 0.35 46 1004.2
20260509205412 76 218 10.0 15.0 0.00 0.00 0.35 44 1004.2
20260509204912 77 231 7.0 14.0 0.00 0.00 0.35 45 1004.6
20260509204412 76 231 7.0 14.0 0.00 0.00 0.35 45 1004.7
20260509203912 76 242 8.0 14.0 0.00 0.00 0.35 45 1004.9
20260509203412 76 214 8.0 13.0 0.00 0.00 0.35 47 1004.9
20260509202912 76 207 6.0 15.0 0.00 0.00 0.35 47 1004.7
20260509202412 76 214 8.0 15.0 0.00 0.00 0.35 49 1004.6
20260509201911 76 210 7.0 14.0 0.00 0.00 0.35 50 1005.2
20260509201411 75 203 8.0 14.0 0.00 0.00 0.35 53 1004.5
20260509200911 75 210 7.0 16.0 0.00 0.00 0.35 53 1004.9
20260509195340 75 207 7.0 16.0 0.00 0.00 0.35 55 1005.3
20260509194840 74 209 7.0 16.0 0.00 0.00 0.35 57 1005.2
20260509194339 74 225 9.0 16.0 0.00 0.00 0.35 56 1005.4
20260509193838 74 211 7.0 16.0 0.00 0.00 0.35 55 1005.4
20260509193337 74 188 6.0 16.0 0.00 0.00 0.35 58 1005.1
20260509192836 74 189 8.0 15.0 0.00 0.00 0.35 56 1005.2
20260509192336 74 201 7.0 14.0 0.00 0.00 0.35 58 1005.5
20260509191319 73 211 4.0 13.0 0.00 0.00 0.35 60 1005.3
20260509190818 73 213 7.0 14.0 0.00 0.00 0.35 59 1005.4
20260509190318 73 221 8.0 14.0 0.00 0.00 0.35 60 1005.2
20260509185306 73 197 7.0 14.0 0.00 0.00 0.35 61 1005.5
20260509184802 72 211 7.0 18.0 0.00 0.00 0.35 61 1005.6
20260509184302 72 197 7.0 20.0 0.00 0.00 0.35 61 1005.4
20260509183247 72 210 9.0 15.0 0.00 0.00 0.35 62 1005.6
20260509182231 72 216 6.0 14.0 0.00 0.00 0.35 63 1005.7
20260509180145 71 205 5.0 15.0 0.00 0.00 0.35 65 1005.6
20260509174614 71 203 6.0 14.0 0.00 0.00 0.35 66 1005.8
20260509174114 71 203 8.0 14.0 0.00 0.00 0.35 64 1005.8
20260509173613 70 198 6.0 14.0 0.00 0.00 0.35 65 1005.7
20260509172556 70 218 8.0 14.0 0.00 0.00 0.35 66 1005.9
20260509172056 70 215 7.0 13.0 0.00 0.00 0.35 65 1006.1
20260509171556 70 212 6.0 13.0 0.00 0.00 0.35 66 1006.3
20260509171055 69 217 6.0 13.0 0.00 0.00 0.35 67 1005.9
20260509170554 69 204 6.0 13.0 0.00 0.00 0.35 66 1006.0
20260509170054 69 211 6.0 14.0 0.00 0.00 0.35 66 1006.0
20260509165554 69 221 7.0 14.0 0.00 0.00 0.35 66 1006.2
20260509165053 69 201 6.0 14.0 0.00 0.00 0.35 66 1006.1
20260509164553 69 197 7.0 14.0 0.00 0.00 0.35 66 1006.1
20260509164052 68 217 6.0 13.0 0.00 0.00 0.35 66 1006.2
20260509163552 68 217 7.0 13.0 0.00 0.00 0.35 66 1006.4
20260509163052 68 204 7.0 13.0 0.00 0.00 0.35 66 1006.3
20260509162551 68 220 6.0 12.0 0.00 0.00 0.35 67 1006.2
20260509161535 68 213 5.0 12.0 0.00 0.00 0.35 68 1005.9
20260509160518 67 209 8.0 14.0 0.00 0.00 0.35 67 1005.9
20260509160018 67 211 6.0 16.0 0.00 0.00 0.35 69 1006.5
20260509155518 67 206 6.0 16.0 0.00 0.00 0.35 68 1006.2
20260509155018 66 223 6.0 12.0 0.00 0.00 0.35 69 1006.1
20260509154518 66 229 6.0 12.0 0.00 0.00 0.35 70 1006.1
20260509154018 66 198 6.0 12.0 0.00 0.00 0.35 70 1006.2
20260509153518 66 224 5.0 12.0 0.00 0.00 0.35 70 1006.2
20260509153018 66 200 6.0 12.0 0.00 0.00 0.35 70 1005.9
20260509152517 66 202 7.0 14.0 0.00 0.00 0.35 71 1006.0
20260509152017 65 204 6.0 14.0 0.00 0.00 0.35 72 1005.7
20260509145931 64 223 6.0 14.0 0.00 0.00 0.35 77 1006.0
20260509145430 64 197 5.0 14.0 0.00 0.00 0.35 77 1006.0
20260509144930 64 205 5.0 13.0 0.00 0.00 0.35 77 1006.0
20260509143914 63 210 6.0 12.0 0.00 0.00 0.35 77 1005.9
20260509143414 63 204 3.0 12.0 0.00 0.00 0.35 81 1006.0
20260509142914 63 215 5.0 12.0 0.00 0.00 0.35 81 1005.8
20260509142414 62 206 6.0 12.0 0.00 0.00 0.35 81 1005.7
20260509141358 61 212 6.0 12.0 0.00 0.00 0.35 82 1005.8
20260509140857 61 188 5.0 12.0 0.00 0.00 0.35 83 1005.8
20260509140356 61 196 4.0 12.0 0.00 0.00 0.35 84 1005.9
20260509135856 60 195 3.0 12.0 0.00 0.00 0.35 87 1005.8
20260509135356 60 218 5.0 12.0 0.00 0.00 0.35 86 1005.9
20260509134856 59 199 5.0 12.0 0.00 0.00 0.35 87 1005.6
20260509134356 59 200 4.0 12.0 0.00 0.00 0.35 89 1005.8
20260509133855 58 216 5.0 12.0 0.00 0.00 0.35 90 1005.8
20260509133354 58 192 3.0 12.0 0.00 0.00 0.35 91 1005.9
20260509131307 57 182 4.0 12.0 0.00 0.00 0.35 95 1005.9
20260509130807 56 185 3.0 12.0 0.00 0.00 0.35 95 1005.8
20260509130306 56 212 5.0 12.0 0.00 0.00 0.35 94 1006.2
20260509125805 56 189 3.0 12.0 0.00 0.00 0.35 95 1006.0
20260509124750 56 189 3.0 12.0 0.00 0.00 0.35 95 1006.1
20260509124249 56 208 4.0 12.0 0.00 0.00 0.35 96 1006.0
20260509123748 56 176 3.0 12.0 0.00 0.00 0.35 96 1005.6
20260509123248 56 175 4.0 12.0 0.00 0.00 0.35 96 1005.8
20260509122747 55 177 2.0 12.0 0.00 0.00 0.35 96 1005.5
20260509122246 55 171 3.0 12.0 0.00 0.00 0.35 96 1005.8
20260509121746 55 185 3.0 12.0 0.00 0.00 0.35 96 1005.6
20260509121245 55 185 3.0 12.0 0.00 0.00 0.35 96 1005.9
20260509120745 55 176 3.0 12.0 0.00 0.00 0.35 96 1005.8
20260509120244 55 167 3.0 12.0 0.00 0.00 0.35 96 1005.7
20260509115228 55 185 2.0 12.0 0.00 0.00 0.35 96 1005.8
20260509114728 55 209 4.0 12.0 0.00 0.00 0.35 96 1005.8
20260509113712 55 196 2.0 12.0 0.00 0.00 0.35 96 1006.0
20260509113212 55 207 2.0 12.0 0.00 0.00 0.35 96 1005.8
20260509112156 54 222 2.0 12.0 0.00 0.00 0.35 96 1006.3
20260509111655 55 190 2.0 12.0 0.00 0.00 0.35 96 1006.0
20260509111155 54 194 1.0 12.0 0.00 0.00 0.35 96 1006.0
20260509110654 54 190 1.0 12.0 0.00 0.00 0.35 96 1005.9
20260509105121 54 212 3.0 12.0 0.00 0.00 0.35 96 1005.7
20260509104108 54 225 1.0 12.0 0.00 0.00 0.35 96 1005.9
20260509103051 54 215 2.0 12.0 0.00 0.00 0.35 96 1005.5
20260509101519 55 175 2.0 12.0 0.00 0.00 0.35 96 1005.6
20260509100503 55 167 2.0 12.0 0.02 0.00 0.35 96 1005.6
20260509100002 55 196 2.0 12.0 0.02 0.00 0.35 96 1005.3
20260509095502 55 214 1.0 12.0 0.03 0.00 0.35 96 1005.6
20260509095001 55 195 1.0 12.0 0.03 0.00 0.35 96 1005.8
20260509094500 55 206 3.0 12.0 0.03 0.00 0.35 96 1005.7
20260509093959 55 208 2.0 12.0 0.03 0.00 0.35 96 1005.9
20260509093458 55 209 3.0 12.0 0.03 0.00 0.35 96 1006.1
20260509092957 55 185 3.0 12.0 0.04 0.00 0.35 96 1005.9
20260509092456 55 210 4.0 12.0 0.04 0.00 0.35 96 1006.1
20260509091956 55 191 3.0 12.0 0.04 0.00 0.35 96 1006.1
20260509091456 55 211 3.0 12.0 0.04 0.00 0.35 96 1006.4
20260509090955 55 212 4.0 12.0 0.04 0.00 0.35 96 1006.1
20260509085939 55 191 3.0 12.0 0.02 0.00 0.32 96 1006.0
20260509084922 55 207 2.0 12.0 0.01 0.00 0.31 96 1006.3
20260509084421 55 202 5.0 12.0 0.01 0.00 0.31 96 1006.3
20260509083921 55 198 3.0 12.0 0.01 0.00 0.31 96 1006.1
20260509083421 55 194 4.0 12.0 0.01 0.00 0.31 96 1006.3
20260509082921 55 184 3.0 12.0 0.00 0.00 0.30 96 1006.0
20260509082420 55 184 3.0 12.0 0.00 0.00 0.30 96 1006.0
20260509081919 55 192 3.0 12.0 0.01 0.00 0.30 96 1006.0
20260509081419 55 187 2.0 12.0 0.01 0.00 0.30 96 1006.2
20260509080919 55 194 3.0 12.0 0.01 0.00 0.30 96 1006.0
20260509080418 55 185 2.0 12.0 0.01 0.00 0.30 96 1006.1
20260509075917 55 202 2.0 12.0 0.01 0.00 0.30 96 1006.2
20260509075417 55 185 2.0 12.0 0.02 0.00 0.30 96 1006.2
20260509074402 55 180 3.0 12.0 0.02 0.00 0.30 96 1006.4
20260509073901 55 179 3.0 12.0 0.03 0.00 0.30 96 1006.3
20260509073400 55 180 2.0 12.0 0.03 0.00 0.30 96 1005.9
20260509072859 55 190 1.0 12.0 0.03 0.00 0.30 96 1006.2
20260509072359 55 214 0.0 12.0 0.03 0.00 0.30 95 1006.2
20260509071344 55 213 1.0 12.0 0.03 0.00 0.29 96 1006.6